FW4685 Weather Reports


Display with metric or nautical units.
time (UTC)temp
F
wind
direction
speed
MPH
gust
MPH
rain 1hr
in
rain 24hr
in
rain mn
in
humidity
%
barometer
mb
20260904064524 69 167 2.0 7.0 0.00 0.00 0.00 84 1012.2
20260904063517 69 203 2.0 7.0 0.00 0.00 0.00 84 1012.1
20260904062549 68 205 2.0 10.0 0.00 0.00 0.00 85 1012.2
20260904061522 68 166 1.0 10.0 0.00 0.00 0.00 86 1012.4
20260904060520 68 195 2.0 10.0 0.00 0.00 0.00 86 1012.5
20260904055548 68 202 1.0 5.0 0.00 0.00 0.00 88 1012.7
20260904054523 67 198 1.0 5.0 0.00 0.00 0.00 89 1012.9
20260904053531 68 165 1.0 5.0 0.00 0.00 0.00 89 1012.7
20260904052521 68 172 1.0 5.0 0.00 0.00 0.00 90 1012.7
20260904051515 68 170 1.0 7.0 0.00 0.00 0.00 90 1012.7
20260904050525 68 185 1.0 7.0 0.00 0.00 0.00 89 1012.5
20260904045539 69 146 1.0 7.0 0.00 0.00 0.00 88 1012.8
20260904044530 69 179 1.0 10.0 0.00 0.00 0.00 87 1013.1
20260904043522 69 137 0.0 7.0 0.00 0.00 0.00 86 1013.2
20260904042529 69 173 1.0 7.0 0.00 0.00 0.00 86 1013.1
20260904041542 69 165 1.0 10.0 0.00 0.00 0.00 85 1013.5
20260904040517 69 154 0.0 5.0 0.00 0.00 0.00 85 1013.4
20260904035528 69 156 2.0 7.0 0.00 0.00 0.00 85 1013.3
20260904034523 69 212 1.0 5.0 0.00 0.00 0.00 85 1013.4
20260904033519 68 195 2.0 12.0 0.00 0.00 0.00 85 1013.6
20260904032517 68 162 1.0 5.0 0.00 0.00 0.00 85 1013.7
20260904031529 68 179 2.0 7.0 0.00 0.00 0.00 85 1013.8
20260904030517 68 199 1.0 5.0 0.00 0.00 0.00 85 1013.6
20260904025548 68 144 2.0 12.0 0.00 0.00 0.00 84 1013.8
20260904024525 69 173 1.0 7.0 0.00 0.00 0.00 84 1014.0
20260904023516 69 135 1.0 12.0 0.00 0.00 0.00 84 1014.1
20260904022529 68 191 1.0 7.0 0.00 0.00 0.00 83 1014.1
20260904021531 68 174 2.0 12.0 0.00 0.00 0.00 83 1014.2
20260904020519 68 192 2.0 7.0 0.00 0.00 0.00 83 1014.5
20260904015523 68 208 2.0 12.0 0.00 0.00 0.00 83 1014.6
20260904014516 68 186 2.0 7.0 0.00 0.00 0.00 83 1014.7
20260904013523 68 208 2.0 12.0 0.00 0.00 0.00 83 1014.8
20260904012518 68 178 1.0 5.0 0.00 0.00 0.00 82 1015.0
20260904011529 68 169 1.0 7.0 0.00 0.00 0.00 82 1015.0
20260904010543 68 172 2.0 7.0 0.00 0.00 0.00 83 1015.0
20260904005516 68 177 1.0 5.0 0.00 0.00 0.00 84 1015.3
20260904004528 68 215 1.0 7.0 0.00 0.00 0.00 84 1015.4
20260904003541 68 177 1.0 10.0 0.00 0.00 0.00 84 1015.5
20260904002518 68 152 0.0 2.0 0.00 0.00 0.00 84 1015.6
20260904001528 68 215 1.0 7.0 0.00 0.00 0.00 84 1015.8
20260904000523 68 152 2.0 7.0 0.00 0.00 0.00 84 1016.0
20260903235518 67 195 1.0 7.0 0.00 0.00 0.00 84 1016.2
20260903234516 67 216 1.0 5.0 0.00 0.00 0.00 85 1016.4
20260903233522 67 198 1.0 5.0 0.00 0.00 0.00 85 1016.4
20260903232516 67 207 0.0 5.0 0.00 0.00 0.00 85 1016.6
20260903231520 67 222 0.0 5.0 0.00 0.00 0.00 85 1016.8
20260903230529 68 165 0.0 7.0 0.00 0.00 0.00 85 1016.8
20260903225522 68 205 1.0 10.0 0.00 0.00 0.00 84 1016.8
20260903224517 68 215 1.0 7.0 0.00 0.00 0.00 84 1016.8
20260903223518 68 165 1.0 7.0 0.00 0.00 0.00 85 1016.8
20260903222528 68 210 1.0 5.0 0.00 0.00 0.00 85 1016.8
20260903221521 69 198 1.0 5.0 0.00 0.00 0.00 84 1017.0
20260903220558 69 19 1.0 7.0 0.00 0.00 0.00 83 1017.2
20260903215548 69 185 1.0 5.0 0.00 0.00 0.00 83 1017.6
20260903214543 69 174 0.0 5.0 0.00 0.00 0.00 82 1017.7
20260903213517 69 190 1.0 12.0 0.00 0.00 0.00 83 1017.7
20260903212517 69 232 1.0 7.0 0.00 0.00 0.00 83 1017.6
20260903211528 69 94 1.0 5.0 0.00 0.00 0.00 84 1017.3
20260903210525 69 114 1.0 5.0 0.00 0.00 0.00 84 1017.5
20260903205516 69 245 0.0 5.0 0.00 0.00 0.00 84 1017.5
20260903204549 69 224 1.0 7.0 0.00 0.00 0.00 84 1017.4
20260903203522 69 167 0.0 5.0 0.00 0.00 0.00 84 1017.7
20260903202516 70 96 0.0 5.0 0.00 0.00 0.00 84 1017.5
20260903201548 70 159 1.0 5.0 0.00 0.00 0.00 84 1017.5
20260903200520 70 179 0.0 5.0 0.00 0.00 0.00 83 1017.4
20260903195518 70 207 1.0 7.0 0.00 0.00 0.00 83 1017.4
20260903194530 71 168 1.0 5.0 0.00 0.00 0.00 82 1017.7
20260903193548 71 196 1.0 5.0 0.00 0.00 0.00 81 1017.7
20260903192517 71 182 1.0 7.0 0.00 0.00 0.00 81 1017.8
20260903191528 72 207 1.0 5.0 0.00 0.00 0.00 80 1017.8
20260903190549 72 180 1.0 5.0 0.00 0.00 0.00 79 1017.8
20260903185520 73 192 1.0 5.0 0.00 0.00 0.00 79 1017.6
20260903184556 73 233 1.0 5.0 0.00 0.00 0.00 78 1017.6
20260903183528 74 215 1.0 7.0 0.00 0.00 0.00 77 1017.4
20260903182540 74 164 1.0 5.0 0.00 0.00 0.00 76 1017.3
20260903181516 74 190 1.0 7.0 0.00 0.00 0.00 76 1017.6
20260903180529 75 183 1.0 5.0 0.00 0.00 0.00 75 1017.6
20260903175521 75 173 0.0 5.0 0.00 0.00 0.00 74 1017.6
20260903174536 76 197 2.0 10.0 0.00 0.00 0.00 74 1017.6
20260903173530 77 197 1.0 7.0 0.00 0.00 0.00 73 1017.7
20260903172523 78 180 1.0 7.0 0.00 0.00 0.00 71 1017.6
20260903171538 78 231 1.0 7.0 0.00 0.00 0.00 69 1017.5
20260903170548 78 230 1.0 7.0 0.00 0.00 0.00 68 1017.6
20260903165520 79 187 1.0 5.0 0.00 0.00 0.00 67 1017.6
20260903164516 79 150 0.0 5.0 0.00 0.00 0.00 66 1017.6
20260903163520 80 181 1.0 7.0 0.00 0.00 0.00 66 1017.6
20260903162027 80 194 1.0 10.0 0.00 0.00 0.00 62 1017.6
20260903161024 80 148 1.0 7.0 0.00 0.00 0.00 64 1017.8
20260903160028 81 200 1.0 5.0 0.00 0.00 0.00 65 1017.8
20260903155022 81 204 2.0 7.0 0.00 0.00 0.00 64 1018.0
20260903154029 83 194 1.0 7.0 0.00 0.00 0.00 61 1018.0
20260903153023 83 236 1.0 7.0 0.00 0.00 0.00 61 1018.1
20260903152029 83 167 0.0 5.0 0.00 0.00 0.00 60 1018.0
20260903151023 82 168 1.0 7.0 0.00 0.00 0.00 58 1018.2
20260903150036 81 147 1.0 10.0 0.00 0.00 0.00 60 1018.0
20260903145028 80 105 1.0 5.0 0.00 0.00 0.00 59 1018.3
20260903144022 81 243 1.0 7.0 0.00 0.00 0.00 59 1018.3
20260903143016 81 162 1.0 5.0 0.00 0.00 0.00 59 1018.3
20260903142028 82 315 2.0 10.0 0.00 0.00 0.00 57 1018.3
20260903141020 82 188 1.0 5.0 0.00 0.00 0.00 57 1018.4
20260903140036 82 226 1.0 5.0 0.00 0.00 0.00 54 1018.5
20260903135028 82 167 1.0 7.0 0.00 0.00 0.00 55 1018.6
20260903134023 82 128 1.0 5.0 0.00 0.00 0.00 54 1018.8
20260903133029 82 104 1.0 5.0 0.00 0.00 0.00 56 1018.8
20260903132028 81 222 2.0 7.0 0.00 0.00 0.00 56 1019.0
20260903131018 80 19 1.0 12.0 0.00 0.00 0.00 58 1018.9
20260903130029 80 123 1.0 7.0 0.00 0.00 0.00 58 1018.9
20260903125021 79 14 1.0 5.0 0.00 0.00 0.00 60 1019.0
20260903124019 80 239 1.0 7.0 0.00 0.00 0.00 61 1019.3
20260903123027 80 136 1.0 7.0 0.00 0.00 0.00 60 1019.2
20260903122022 80 253 1.0 5.0 0.00 0.00 0.00 60 1019.2
20260903121016 79 9 1.0 5.0 0.00 0.00 0.00 59 1019.1
20260903120027 79 225 1.0 5.0 0.00 0.00 0.00 60 1019.1
20260903115019 78 143 1.0 5.0 0.00 0.00 0.00 61 1019.0
20260903114016 78 292 1.0 7.0 0.00 0.00 0.00 62 1019.1
20260903113030 78 287 0.0 5.0 0.00 0.00 0.00 63 1019.2
20260903112021 78 156 1.0 5.0 0.00 0.00 0.00 64 1019.3
20260903110528 77 347 1.0 7.0 0.00 0.00 0.00 63 1019.3
20260903105520 76 167 1.0 7.0 0.00 0.00 0.00 64 1019.4
20260903104515 75 245 1.0 5.0 0.00 0.00 0.00 66 1019.5
20260903103527 75 193 0.0 5.0 0.00 0.00 0.00 70 1019.7
20260903102520 75 273 1.0 5.0 0.00 0.01 0.00 69 1019.6
20260903101015 74 267 1.0 7.0 0.00 0.06 0.00 68 1019.5
20260903100028 73 132 1.0 5.0 0.00 0.06 0.00 68 1019.5
20260903095023 72 297 0.0 7.0 0.00 0.07 0.00 72 1019.5
20260903094037 71 349 1.0 7.0 0.00 0.07 0.00 74 1019.7
20260903093027 71 249 1.0 10.0 0.00 0.07 0.00 75 1019.8
20260903092020 71 304 1.0 10.0 0.00 0.07 0.00 76 1019.8
20260903091019 71 304 1.0 7.0 0.00 0.07 0.00 77 1019.9
20260903090016 71 315 1.0 7.0 0.00 0.07 0.00 77 1019.8
20260903085027 70 258 1.0 7.0 0.00 0.07 0.00 78 1019.6
20260903084020 70 5 1.0 7.0 0.00 0.07 0.00 78 1019.6
20260903083029 70 3 1.0 5.0 0.00 0.07 0.00 79 1019.4
20260903082022 69 195 1.0 5.0 0.00 0.07 0.00 79 1019.0
20260903081036 69 332 1.0 15.0 0.00 0.07 0.00 80 1019.0
20260903080027 68 170 1.0 7.0 0.00 0.07 0.00 81 1018.8
20260903075021 68 83 0.0 5.0 0.00 0.07 0.00 82 1018.5
20260903074016 68 338 1.0 5.0 0.00 0.07 0.00 83 1018.5
20260903073020 68 352 1.0 5.0 0.00 0.07 0.00 84 1018.4
20260903072017 67 182 1.0 5.0 0.00 0.07 0.00 84 1018.1
20260903071047 67 201 1.0 7.0 0.00 0.07 0.00 85 1017.9
20260903070022 67 238 0.0 2.0 0.00 0.07 0.00 85 1018.3